﻿測定場所 (Monitoring sites),日付 (Measurement date),時間 (Measurement time),線量率 最大値 (max) μGy/h,線量率 最小値 (min) μGy/h,線量率 平均値 (average) μGy/h,
大田 (Ota),2012-10-28,23:01～24:00,0.0707,0.0561,0.0625,
大田 (Ota),2012-10-28,22:01～23:00,0.0596,0.0521,0.0563,
大田 (Ota),2012-10-28,21:01～22:00,0.0669,0.0538,0.0593,
大田 (Ota),2012-10-28,20:01～21:00,0.0711,0.0624,0.0673,
大田 (Ota),2012-10-28,19:01～20:00,0.0736,0.0585,0.0666,
大田 (Ota),2012-10-28,18:01～19:00,0.0656,0.0551,0.0603,
大田 (Ota),2012-10-28,17:01～18:00,0.0606,0.0543,0.0578,
大田 (Ota),2012-10-28,16:01～17:00,0.0606,0.0499,0.0542,
大田 (Ota),2012-10-28,15:01～16:00,0.0561,0.0500,0.0532,
大田 (Ota),2012-10-28,14:01～15:00,0.0571,0.0496,0.0529,
大田 (Ota),2012-10-28,13:01～14:00,0.0590,0.0498,0.0545,
大田 (Ota),2012-10-28,12:01～13:00,0.0631,0.0537,0.0576,
大田 (Ota),2012-10-28,11:01～12:00,0.0615,0.0542,0.0582,
大田 (Ota),2012-10-28,10:01～11:00,0.0588,0.0512,0.0553,
大田 (Ota),2012-10-28,09:01～10:00,0.0561,0.0493,0.0523,
大田 (Ota),2012-10-28,08:01～09:00,0.0562,0.0499,0.0527,
大田 (Ota),2012-10-28,07:01～08:00,0.0559,0.0501,0.0530,
大田 (Ota),2012-10-28,06:01～07:00,0.0566,0.0503,0.0531,
大田 (Ota),2012-10-28,05:01～06:00,0.0568,0.0497,0.0532,
大田 (Ota),2012-10-28,04:01～05:00,0.0572,0.0503,0.0529,
大田 (Ota),2012-10-28,03:01～04:00,0.0569,0.0479,0.0530,
大田 (Ota),2012-10-28,02:01～03:00,0.0564,0.0501,0.0529,
大田 (Ota),2012-10-28,01:01～02:00,0.0569,0.0490,0.0526,
大田 (Ota),2012-10-28,00:01～01:00,0.0567,0.0505,0.0532,
大田 (Ota),2012-10-27,23:01～24:00,0.0570,0.0491,0.0529,
大田 (Ota),2012-10-27,22:01～23:00,0.0564,0.0493,0.0526,
大田 (Ota),2012-10-27,21:01～22:00,0.0561,0.0495,0.0525,
大田 (Ota),2012-10-27,20:01～21:00,0.0550,0.0491,0.0522,
大田 (Ota),2012-10-27,19:01～20:00,0.0561,0.0479,0.0523,
大田 (Ota),2012-10-27,18:01～19:00,0.0557,0.0483,0.0524,
大田 (Ota),2012-10-27,17:01～18:00,0.0562,0.0496,0.0525,
大田 (Ota),2012-10-27,16:01～17:00,0.0553,0.0487,0.0522,
大田 (Ota),2012-10-27,15:01～16:00,0.0559,0.0494,0.0522,
大田 (Ota),2012-10-27,14:01～15:00,0.0566,0.0494,0.0522,
大田 (Ota),2012-10-27,13:01～14:00,0.0574,0.0482,0.0525,
大田 (Ota),2012-10-27,12:01～13:00,0.0558,0.0493,0.0524,
大田 (Ota),2012-10-27,11:01～12:00,0.0551,0.0483,0.0520,
大田 (Ota),2012-10-27,10:01～11:00,0.0562,0.0498,0.0528,
大田 (Ota),2012-10-27,09:01～10:00,0.0563,0.0495,0.0531,
大田 (Ota),2012-10-27,08:01～09:00,0.0585,0.0504,0.0536,
大田 (Ota),2012-10-27,07:01～08:00,0.0573,0.0487,0.0529,
大田 (Ota),2012-10-27,06:01～07:00,0.0566,0.0503,0.0530,
大田 (Ota),2012-10-27,05:01～06:00,0.0558,0.0499,0.0530,
大田 (Ota),2012-10-27,04:01～05:00,0.0568,0.0502,0.0529,
大田 (Ota),2012-10-27,03:01～04:00,0.0578,0.0495,0.0532,
大田 (Ota),2012-10-27,02:01～03:00,0.0559,0.0491,0.0528,
大田 (Ota),2012-10-27,01:01～02:00,0.0560,0.0488,0.0526,
大田 (Ota),2012-10-27,00:01～01:00,0.0555,0.0486,0.0524,
大田 (Ota),2012-10-26,23:01～24:00,0.0558,0.0490,0.0523,
大田 (Ota),2012-10-26,22:01～23:00,0.0562,0.0499,0.0525,
大田 (Ota),2012-10-26,21:01～22:00,0.0580,0.0495,0.0522,
大田 (Ota),2012-10-26,20:01～21:00,0.0554,0.0492,0.0524,
大田 (Ota),2012-10-26,19:01～20:00,0.0548,0.0492,0.0519,
大田 (Ota),2012-10-26,18:01～19:00,0.0553,0.0489,0.0520,
大田 (Ota),2012-10-26,17:01～18:00,0.0549,0.0483,0.0522,
大田 (Ota),2012-10-26,16:01～17:00,0.0550,0.0493,0.0519,
大田 (Ota),2012-10-26,15:01～16:00,0.0549,0.0488,0.0520,
大田 (Ota),2012-10-26,14:01～15:00,0.0555,0.0487,0.0523,
大田 (Ota),2012-10-26,13:01～14:00,0.0568,0.0487,0.0522,
大田 (Ota),2012-10-26,12:01～13:00,0.0575,0.0492,0.0530,
大田 (Ota),2012-10-26,11:01～12:00,0.0554,0.0501,0.0529,
大田 (Ota),2012-10-26,10:01～11:00,0.0571,0.0497,0.0533,
大田 (Ota),2012-10-26,09:01～10:00,0.0570,0.0487,0.0531,
大田 (Ota),2012-10-26,08:01～09:00,0.0559,0.0495,0.0533,
大田 (Ota),2012-10-26,07:01～08:00,0.0560,0.0495,0.0530,
大田 (Ota),2012-10-26,06:01～07:00,0.0573,0.0512,0.0535,
大田 (Ota),2012-10-26,05:01～06:00,0.0558,0.0501,0.0534,
大田 (Ota),2012-10-26,04:01～05:00,0.0578,0.0502,0.0532,
大田 (Ota),2012-10-26,03:01～04:00,0.0562,0.0504,0.0531,
大田 (Ota),2012-10-26,02:01～03:00,0.0563,0.0487,0.0529,
大田 (Ota),2012-10-26,01:01～02:00,0.0556,0.0486,0.0524,
大田 (Ota),2012-10-26,00:01～01:00,0.0564,0.0483,0.0525,
大田 (Ota),2012-10-25,23:01～24:00,0.0555,0.0484,0.0521,
大田 (Ota),2012-10-25,22:01～23:00,0.0556,0.0486,0.0522,
大田 (Ota),2012-10-25,21:01～22:00,0.0553,0.0498,0.0522,
大田 (Ota),2012-10-25,20:01～21:00,0.0555,0.0489,0.0521,
大田 (Ota),2012-10-25,19:01～20:00,0.0556,0.0490,0.0521,
大田 (Ota),2012-10-25,18:01～19:00,0.0562,0.0487,0.0521,
大田 (Ota),2012-10-25,17:01～18:00,0.0554,0.0476,0.0520,
大田 (Ota),2012-10-25,16:01～17:00,0.0552,0.0494,0.0522,
大田 (Ota),2012-10-25,15:01～16:00,0.0563,0.0479,0.0522,
大田 (Ota),2012-10-25,14:01～15:00,0.0563,0.0488,0.0524,
大田 (Ota),2012-10-25,13:01～14:00,0.0572,0.0485,0.0525,
大田 (Ota),2012-10-25,12:01～13:00,0.0554,0.0487,0.0521,
大田 (Ota),2012-10-25,11:01～12:00,0.0559,0.0497,0.0525,
大田 (Ota),2012-10-25,10:01～11:00,0.0558,0.0499,0.0525,
大田 (Ota),2012-10-25,09:01～10:00,0.0561,0.0493,0.0525,
大田 (Ota),2012-10-25,08:01～09:00,0.0568,0.0489,0.0527,
大田 (Ota),2012-10-25,07:01～08:00,0.0555,0.0494,0.0526,
大田 (Ota),2012-10-25,06:01～07:00,0.0560,0.0493,0.0528,
大田 (Ota),2012-10-25,05:01～06:00,0.0557,0.0482,0.0525,
大田 (Ota),2012-10-25,04:01～05:00,0.0555,0.0481,0.0527,
大田 (Ota),2012-10-25,03:01～04:00,0.0556,0.0487,0.0521,
大田 (Ota),2012-10-25,02:01～03:00,0.0556,0.0486,0.0523,
大田 (Ota),2012-10-25,01:01～02:00,0.0559,0.0489,0.0522,
大田 (Ota),2012-10-25,00:01～01:00,0.0552,0.0491,0.0520,
大田 (Ota),2012-10-24,23:01～24:00,0.0551,0.0489,0.0522,
大田 (Ota),2012-10-24,22:01～23:00,0.0562,0.0485,0.0522,
大田 (Ota),2012-10-24,21:01～22:00,0.0562,0.0487,0.0524,
大田 (Ota),2012-10-24,20:01～21:00,0.0548,0.0497,0.0523,
大田 (Ota),2012-10-24,19:01～20:00,0.0558,0.0485,0.0518,
大田 (Ota),2012-10-24,18:01～19:00,0.0542,0.0482,0.0516,
大田 (Ota),2012-10-24,17:01～18:00,0.0550,0.0486,0.0515,
大田 (Ota),2012-10-24,16:01～17:00,0.0565,0.0488,0.0517,
大田 (Ota),2012-10-24,15:01～16:00,0.0555,0.0474,0.0517,
大田 (Ota),2012-10-24,14:01～15:00,0.0558,0.0481,0.0512,
大田 (Ota),2012-10-24,13:01～14:00,0.0541,0.0484,0.0517,
大田 (Ota),2012-10-24,12:01～13:00,0.0561,0.0480,0.0523,
大田 (Ota),2012-10-24,11:01～12:00,0.0548,0.0490,0.0517,
大田 (Ota),2012-10-24,10:01～11:00,0.0546,0.0490,0.0519,
大田 (Ota),2012-10-24,09:01～10:00,0.0564,0.0479,0.0517,
大田 (Ota),2012-10-24,08:01～09:00,0.0547,0.0488,0.0518,
大田 (Ota),2012-10-24,07:01～08:00,0.0550,0.0484,0.0519,
大田 (Ota),2012-10-24,06:01～07:00,0.0547,0.0484,0.0517,
大田 (Ota),2012-10-24,05:01～06:00,0.0553,0.0487,0.0519,
大田 (Ota),2012-10-24,04:01～05:00,0.0553,0.0485,0.0516,
大田 (Ota),2012-10-24,03:01～04:00,0.0553,0.0479,0.0517,
大田 (Ota),2012-10-24,02:01～03:00,0.0554,0.0495,0.0520,
大田 (Ota),2012-10-24,01:01～02:00,0.0564,0.0497,0.0526,
大田 (Ota),2012-10-24,00:01～01:00,0.0576,0.0480,0.0526,
大田 (Ota),2012-10-23,23:01～24:00,0.0569,0.0486,0.0534,
大田 (Ota),2012-10-23,22:01～23:00,0.0631,0.0503,0.0572,
大田 (Ota),2012-10-23,21:01～22:00,0.0742,0.0589,0.0666,
大田 (Ota),2012-10-23,20:01～21:00,0.0694,0.0525,0.0598,
大田 (Ota),2012-10-23,19:01～20:00,0.0608,0.0527,0.0567,
大田 (Ota),2012-10-23,18:01～19:00,0.0659,0.0562,0.0613,
大田 (Ota),2012-10-23,17:01～18:00,0.0667,0.0527,0.0617,
大田 (Ota),2012-10-23,16:01～17:00,0.0564,0.0495,0.0525,
大田 (Ota),2012-10-23,15:01～16:00,0.0550,0.0482,0.0521,
大田 (Ota),2012-10-23,14:01～15:00,0.0564,0.0490,0.0528,
大田 (Ota),2012-10-23,13:01～14:00,0.0598,0.0493,0.0541,
大田 (Ota),2012-10-23,12:01～13:00,0.0591,0.0516,0.0548,
大田 (Ota),2012-10-23,11:01～12:00,0.0573,0.0475,0.0529,
大田 (Ota),2012-10-23,10:01～11:00,0.0573,0.0499,0.0535,
大田 (Ota),2012-10-23,09:01～10:00,0.0546,0.0481,0.0520,
大田 (Ota),2012-10-23,08:01～09:00,0.0566,0.0481,0.0521,
大田 (Ota),2012-10-23,07:01～08:00,0.0562,0.0499,0.0527,
大田 (Ota),2012-10-23,06:01～07:00,0.0565,0.0483,0.0522,
大田 (Ota),2012-10-23,05:01～06:00,0.0548,0.0482,0.0519,
大田 (Ota),2012-10-23,04:01～05:00,0.0549,0.0481,0.0517,
大田 (Ota),2012-10-23,03:01～04:00,0.0555,0.0489,0.0521,
大田 (Ota),2012-10-23,02:01～03:00,0.0560,0.0483,0.0522,
大田 (Ota),2012-10-23,01:01～02:00,0.0571,0.0486,0.0518,
大田 (Ota),2012-10-23,00:01～01:00,0.0561,0.0495,0.0518,
大田 (Ota),2012-10-22,23:01～24:00,0.0556,0.0489,0.0522,
大田 (Ota),2012-10-22,22:01～23:00,0.0550,0.0489,0.0523,
大田 (Ota),2012-10-22,21:01～22:00,0.0568,0.0487,0.0523,
大田 (Ota),2012-10-22,20:01～21:00,0.0554,0.0498,0.0521,
大田 (Ota),2012-10-22,19:01～20:00,0.0556,0.0492,0.0520,
大田 (Ota),2012-10-22,18:01～19:00,0.0555,0.0464,0.0523,
大田 (Ota),2012-10-22,17:01～18:00,0.0555,0.0488,0.0521,
大田 (Ota),2012-10-22,16:01～17:00,0.0556,0.0490,0.0524,
大田 (Ota),2012-10-22,15:01～16:00,0.0549,0.0480,0.0518,
大田 (Ota),2012-10-22,14:01～15:00,0.0559,0.0492,0.0523,
大田 (Ota),2012-10-22,13:01～14:00,0.0549,0.0497,0.0526,
大田 (Ota),2012-10-22,12:01～13:00,0.0554,0.0483,0.0525,
大田 (Ota),2012-10-22,11:01～12:00,0.0567,0.0492,0.0524,
大田 (Ota),2012-10-22,10:01～11:00,0.0577,0.0494,0.0529,
大田 (Ota),2012-10-22,09:01～10:00,0.0561,0.0491,0.0530,
大田 (Ota),2012-10-22,08:01～09:00,0.0565,0.0489,0.0527,
大田 (Ota),2012-10-22,07:01～08:00,0.0583,0.0501,0.0528,
大田 (Ota),2012-10-22,06:01～07:00,0.0571,0.0497,0.0527,
大田 (Ota),2012-10-22,05:01～06:00,0.0563,0.0489,0.0527,
大田 (Ota),2012-10-22,04:01～05:00,0.0559,0.0491,0.0528,
大田 (Ota),2012-10-22,03:01～04:00,0.0555,0.0492,0.0526,
大田 (Ota),2012-10-22,02:01～03:00,0.0557,0.0496,0.0523,
大田 (Ota),2012-10-22,01:01～02:00,0.0550,0.0497,0.0524,
大田 (Ota),2012-10-22,00:01～01:00,0.0551,0.0494,0.0519,
